JE2VQT13 Weather Reports


Display with metric or nautical units.
time (UTC)temp
F
wind
direction
speed
MPH
gust
MPH
rain 1hr
in
rain 24hr
in
rain mn
in
humidity
%
barometer
mb
20260509123014 63 190 0.0 1.0 0.00 0.00 0.00 54 1018.1
20260509121513 63 190 0.0 2.0 0.00 0.00 0.00 55 1018.0
20260509120013 63 190 0.0 1.0 0.00 0.00 0.00 54 1017.9
20260509114515 63 190 0.0 2.0 0.00 0.00 0.00 54 1017.8
20260509113015 64 190 0.0 2.0 0.00 0.00 0.00 53 1017.6
20260509111513 64 190 0.0 3.0 0.00 0.00 0.00 53 1017.6
20260509110015 65 186 1.0 3.0 0.00 0.00 0.00 51 1017.1
20260509104515 65 191 0.0 3.0 0.00 0.00 0.00 50 1016.8
20260509103015 65 187 0.0 2.0 0.00 0.00 0.00 49 1016.7
20260509101513 66 190 0.0 3.0 0.00 0.00 0.00 48 1016.4
20260509100014 66 189 1.0 3.0 0.00 0.00 0.00 47 1016.1
20260509094513 67 190 0.0 3.0 0.00 0.00 0.00 46 1016.0
20260509091514 68 189 1.0 7.0 0.00 0.00 0.00 44 1015.4
20260509090014 69 186 1.0 5.0 0.00 0.00 0.00 44 1015.3
20260509084513 69 190 1.0 6.0 0.00 0.00 0.00 43 1015.2
20260509083014 71 181 1.0 7.0 0.00 0.00 0.00 41 1015.0
20260509074513 72 186 1.0 7.0 0.00 0.00 0.00 31 1014.4
20260509071513 73 189 0.0 6.0 0.00 0.00 0.00 31 1014.6
20260509070015 73 181 1.0 6.0 0.00 0.00 0.00 31 1014.4
20260509064513 74 189 0.0 3.0 0.00 0.00 0.00 30 1014.2
20260509063014 73 190 1.0 6.0 0.00 0.00 0.00 31 1013.9
20260509061513 73 185 0.0 6.0 0.00 0.00 0.00 31 1013.8
20260509060013 73 183 1.0 3.0 0.00 0.00 0.00 30 1013.7
20260509054513 74 168 1.0 3.0 0.00 0.00 0.00 32 1013.9
20260509053013 73 190 1.0 9.0 0.00 0.00 0.00 32 1014.0
20260509051515 73 171 1.0 7.0 0.00 0.00 0.00 32 1013.9
20260509050013 73 188 1.0 9.0 0.00 0.00 0.00 32 1014.4
20260509043014 72 190 1.0 9.0 0.00 0.00 0.00 33 1014.7
20260509041514 72 178 1.0 5.0 0.00 0.00 0.00 33 1014.8
20260509040013 72 191 1.0 6.0 0.00 0.00 0.00 34 1014.7
20260509034513 72 184 1.0 3.0 0.00 0.00 0.00 34 1014.9
20260509031513 71 110 1.0 3.0 0.00 0.00 0.00 35 1015.0
20260509030013 71 190 1.0 3.0 0.00 0.00 0.00 37 1015.1
20260509024513 70 176 1.0 7.0 0.00 0.00 0.00 39 1015.1
20260509020014 69 185 0.0 7.0 0.00 0.00 0.00 39 1015.4
20260509014513 68 154 1.0 7.0 0.00 0.00 0.00 41 1015.3
20260509013015 68 190 1.0 6.0 0.00 0.00 0.00 39 1015.6
20260509010013 67 185 1.0 3.0 0.00 0.00 0.00 41 1015.6
20260509004515 67 190 1.0 3.0 0.00 0.00 0.00 42 1015.6
20260509003013 67 190 1.0 3.0 0.00 0.00 0.00 43 1015.3
20260509001514 66 190 1.0 5.0 0.00 0.00 0.00 44 1015.3
20260509000013 66 189 1.0 3.0 0.00 0.00 0.00 45 1015.2
20260508233013 65 189 0.0 3.0 0.00 0.00 0.00 47 1015.0
20260508231514 65 188 1.0 3.0 0.00 0.00 0.00 47 1015.0
20260508230013 64 187 1.0 3.0 0.00 0.00 0.00 47 1014.8
20260508221513 63 190 0.0 3.0 0.00 0.00 0.00 52 1014.2
20260508220013 62 190 0.0 1.0 0.00 0.00 0.00 56 1014.0
20260508213013 59 190 0.0 2.0 0.00 0.00 0.00 60 1013.7
20260508211513 59 181 0.0 3.0 0.00 0.00 0.00 61 1013.4
20260508210013 58 191 0.0 2.0 0.00 0.00 0.00 61 1013.2
20260508204513 58 190 0.0 2.0 0.00 0.00 0.00 62 1012.7
20260508203013 58 189 0.0 2.0 0.00 0.00 0.00 61 1012.8
20260508201512 58 189 0.0 2.0 0.00 0.00 0.00 61 1012.8
20260508200012 58 190 1.0 3.0 0.00 0.00 0.00 61 1012.6
20260508193013 59 168 0.0 2.0 0.00 0.00 0.00 61 1012.3
20260508184513 59 183 1.0 6.0 0.00 0.00 0.00 62 1012.0
20260508183012 59 179 2.0 6.0 0.00 0.00 0.00 63 1011.8
20260508181512 59 190 1.0 3.0 0.00 0.00 0.00 62 1011.9
20260508180012 60 190 0.0 5.0 0.00 0.00 0.00 62 1011.7
20260508174513 60 184 1.0 3.0 0.00 0.00 0.00 60 1011.5
20260508173014 61 191 1.0 6.0 0.00 0.00 0.00 58 1011.4
20260508171513 61 177 0.0 3.0 0.00 0.00 0.00 57 1011.2
20260508170013 61 186 1.0 5.0 0.00 0.00 0.00 57 1011.4
20260508164514 61 188 0.0 3.0 0.00 0.00 0.00 55 1011.3
20260508161512 61 190 0.0 3.0 0.00 0.00 0.00 51 1011.4
20260508160013 61 191 0.0 3.0 0.00 0.00 0.00 51 1011.5
20260508154513 61 190 0.0 2.0 0.00 0.00 0.00 50 1011.3
20260508153012 61 190 0.0 2.0 0.00 0.00 0.00 49 1011.5
20260508151513 62 190 0.0 2.0 0.00 0.00 0.00 47 1011.4
20260508150013 63 190 0.0 1.0 0.00 0.00 0.00 42 1011.4
20260508144513 63 190 0.0 1.0 0.00 0.00 0.00 40 1011.3
20260508143014 63 190 0.0 1.0 0.00 0.00 0.00 40 1011.3
20260508141512 63 190 0.0 2.0 0.00 0.00 0.00 39 1011.3
20260508140012 64 190 0.0 2.0 0.00 0.00 0.00 39 1011.4
20260508134512 64 190 0.0 2.0 0.00 0.00 0.00 39 1011.4
20260508133014 64 190 0.0 3.0 0.00 0.00 0.00 39 1011.0
20260508131512 64 187 0.0 2.0 0.00 0.00 0.00 40 1010.9
20260508130013 64 190 0.0 3.0 0.00 0.00 0.00 42 1010.6
20260508124513 65 193 1.0 3.0 0.00 0.00 0.00 50 1010.5